Private Wetterstation Sandau
Wetterdaten: Freitag, 01.06.2012
Datum Zeit Temp. A. Feuchte A. Luftdruck Regen Wind Richtung Richtung Taupunkt Windchill
01.06.2012 00:01 14,8 C 86 % 1007,4 hPa 0,0 l/m 6,5 km/h (2 Bft) W-SW 247 12,5 C 14,8 C
01.06.2012 00:06 14,7 C 86 % 1007,3 hPa 0,0 l/m 7,6 km/h (2 Bft) W 270 12,4 C 14,7 C
01.06.2012 00:11 14,6 C 86 % 1007,4 hPa 0,5 l/m 10,1 km/h (2 Bft) W-SW 247 12,3 C 14,6 C
01.06.2012 00:16 14,5 C 86 % 1007,3 hPa 0,0 l/m 6,1 km/h (2 Bft) W-NW 292 12,2 C 14,5 C
01.06.2012 00:21 14,4 C 86 % 1007,2 hPa 0,0 l/m 8,3 km/h (2 Bft) W-SW 247 12,1 C 14,4 C
01.06.2012 00:26 14,4 C 86 % 1007,1 hPa 0,0 l/m 6,8 km/h (2 Bft) W 270 12,1 C 14,4 C
01.06.2012 00:31 14,3 C 86 % 1007,1 hPa 0,0 l/m 15,8 km/h (3 Bft) W-NW 292 12,0 C 14,3 C
01.06.2012 00:36 14,3 C 86 % 1007,1 hPa 0,0 l/m 4,7 km/h (1 Bft) W 270 12,0 C 14,3 C
01.06.2012 00:41 14,2 C 86 % 1007,1 hPa 0,0 l/m 5,0 km/h (1 Bft) W 270 11,9 C 14,2 C
01.06.2012 00:46 14,2 C 86 % 1007,1 hPa 0,0 l/m 11,5 km/h (2 Bft) W-NW 292 11,9 C 14,2 C
01.06.2012 00:51 14,1 C 86 % 1007,1 hPa 0,0 l/m 6,5 km/h (2 Bft) W 270 11,8 C 14,1 C
01.06.2012 00:56 14,1 C 86 % 1007,3 hPa 0,0 l/m 9,4 km/h (2 Bft) W-NW 292 11,8 C 14,1 C
01.06.2012 01:01 14,0 C 87 % 1007,4 hPa 0,0 l/m 10,8 km/h (2 Bft) W 270 11,9 C 14,0 C
01.06.2012 01:06 13,9 C 87 % 1007,3 hPa 0,0 l/m 6,5 km/h (2 Bft) NW 315 11,8 C 13,9 C
01.06.2012 01:11 13,9 C 87 % 1007,4 hPa 0,5 l/m 6,8 km/h (2 Bft) NW 315 11,8 C 13,9 C
01.06.2012 01:16 13,9 C 87 % 1007,2 hPa 0,5 l/m 6,5 km/h (2 Bft) NW 315 11,8 C 13,9 C
01.06.2012 01:21 13,9 C 87 % 1007,2 hPa 0,5 l/m 11,2 km/h (2 Bft) N 360 11,8 C 13,9 C
01.06.2012 01:26 13,9 C 87 % 1007,1 hPa 0,0 l/m 5,4 km/h (1 Bft) N-NO 22 11,8 C 13,9 C
01.06.2012 01:31 13,8 C 88 % 1007,2 hPa 0,0 l/m 13,0 km/h (3 Bft) NO 45 11,8 C 13,8 C
01.06.2012 01:36 13,6 C 88 % 1007,2 hPa 0,0 l/m 6,1 km/h (2 Bft) NO 45 11,6 C 13,6 C
01.06.2012 01:41 13,4 C 88 % 1007,3 hPa 0,0 l/m 6,1 km/h (2 Bft) O-NO 67 11,5 C 13,4 C
01.06.2012 01:46 13,4 C 88 % 1007,4 hPa 0,0 l/m 13,7 km/h (3 Bft) N-NO 22 11,5 C 13,4 C
01.06.2012 01:51 13,4 C 88 % 1007,4 hPa 0,0 l/m 5,8 km/h (2 Bft) NO 45 11,5 C 13,4 C
01.06.2012 01:56 13,3 C 88 % 1007,4 hPa 0,0 l/m 5,8 km/h (2 Bft) NO 45 11,4 C 13,3 C
01.06.2012 02:01 13,3 C 88 % 1007,6 hPa 0,0 l/m 5,0 km/h (1 Bft) N-NO 22 11,4 C 13,3 C
01.06.2012 02:06 13,3 C 88 % 1007,5 hPa 0,0 l/m 2,2 km/h (1 Bft) NO 45 11,4 C 13,3 C
01.06.2012 02:11 13,2 C 89 % 1007,8 hPa 0,0 l/m 5,4 km/h (1 Bft) N 360 11,4 C 13,2 C
01.06.2012 02:16 13,2 C 89 % 1008,0 hPa 0,0 l/m 8,3 km/h (2 Bft) N-NW 337 11,4 C 13,2 C
01.06.2012 02:21 13,2 C 89 % 1007,9 hPa 0,0 l/m 7,6 km/h (2 Bft) N-NO 22 11,4 C 13,2 C
01.06.2012 02:26 13,2 C 89 % 1008,0 hPa 0,0 l/m 6,8 km/h (2 Bft) N-NW 337 11,4 C 13,2 C
01.06.2012 02:31 13,1 C 89 % 1008,1 hPa 0,0 l/m 5,4 km/h (1 Bft) O-NO 67 11,3 C 13,1 C
01.06.2012 02:36 13,1 C 89 % 1008,3 hPa 0,0 l/m 6,5 km/h (2 Bft) NW 315 11,3 C 13,1 C
01.06.2012 02:41 13,1 C 89 % 1008,1 hPa 0,0 l/m 15,1 km/h (3 Bft) N-NW 337 11,3 C 13,1 C
01.06.2012 02:46 13,1 C 89 % 1008,2 hPa 0,0 l/m 11,2 km/h (2 Bft) N-NW 337 11,3 C 13,1 C
01.06.2012 02:51 12,9 C 89 % 1008,3 hPa 0,0 l/m 10,8 km/h (2 Bft) NO 45 11,1 C 12,9 C
01.06.2012 02:56 12,9 C 89 % 1008,4 hPa 0,0 l/m 12,6 km/h (3 Bft) N-NW 337 11,1 C 12,9 C
01.06.2012 03:01 12,9 C 89 % 1008,3 hPa 0,0 l/m 4,0 km/h (1 Bft) W-NW 292 11,1 C 12,9 C
01.06.2012 03:06 12,9 C 89 % 1008,3 hPa 0,0 l/m 4,0 km/h (1 Bft) W-NW 292 11,1 C 12,9 C
01.06.2012 03:11 12,9 C 89 % 1008,3 hPa 0,0 l/m 16,6 km/h (3 Bft) NW 315 11,1 C 12,9 C
01.06.2012 03:16 12,7 C 88 % 1008,4 hPa 0,0 l/m 6,8 km/h (2 Bft) N-NW 337 10,8 C 12,7 C
01.06.2012 03:21 12,6 C 88 % 1008,5 hPa 0,0 l/m 9,7 km/h (2 Bft) N-NO 22 10,7 C 12,6 C
01.06.2012 03:26 12,5 C 88 % 1008,7 hPa 0,0 l/m 14,4 km/h (3 Bft) N-NW 337 10,6 C 12,5 C
01.06.2012 03:31 12,5 C 88 % 1008,8 hPa 0,0 l/m 5,8 km/h (2 Bft) N 360 10,6 C 12,5 C
01.06.2012 03:36 12,4 C 88 % 1008,9 hPa 0,0 l/m 5,8 km/h (2 Bft) N-NW 337 10,5 C 12,4 C
01.06.2012 03:41 12,4 C 88 % 1009,0 hPa 0,0 l/m 5,8 km/h (2 Bft) N-NO 22 10,5 C 12,4 C
01.06.2012 03:46 12,4 C 88 % 1009,1 hPa 0,0 l/m 6,5 km/h (2 Bft) N 360 10,5 C 12,4 C
01.06.2012 03:51 12,4 C 88 % 1009,1 hPa 0,0 l/m 7,2 km/h (2 Bft) N 360 10,5 C 12,4 C
01.06.2012 03:56 12,3 C 88 % 1009,2 hPa 0,0 l/m 9,7 km/h (2 Bft) N-NO 22 10,4 C 12,3 C
01.06.2012 04:01 12,2 C 88 % 1009,3 hPa 0,0 l/m 9,7 km/h (2 Bft) N-NO 22 10,3 C 12,2 C
01.06.2012 04:06 12,2 C 88 % 1009,4 hPa 0,0 l/m 6,8 km/h (2 Bft) N 360 10,3 C 12,2 C
01.06.2012 04:11 12,2 C 88 % 1009,6 hPa 0,0 l/m 5,0 km/h (1 Bft) N 360 10,3 C 12,2 C
01.06.2012 04:16 12,2 C 88 % 1009,7 hPa 0,0 l/m 4,7 km/h (1 Bft) N-NW 337 10,3 C 12,2 C
01.06.2012 04:21 12,1 C 88 % 1009,6 hPa 0,0 l/m 8,3 km/h (2 Bft) NW 315 10,2 C 12,1 C
01.06.2012 04:26 12,1 C 87 % 1009,7 hPa 0,0 l/m 0,0 km/h (0 Bft) N-NW 337 10,0 C 12,1 C
01.06.2012 04:31 12,0 C 88 % 1009,7 hPa 0,0 l/m 11,9 km/h (2 Bft) N 360 10,1 C 12,0 C
01.06.2012 04:36 11,9 C 88 % 1009,8 hPa 0,0 l/m 7,2 km/h (2 Bft) O-NO 67 10,0 C 11,9 C
01.06.2012 04:41 11,9 C 88 % 1009,9 hPa 0,0 l/m 3,6 km/h (1 Bft) N 360 10,0 C 11,9 C
01.06.2012 04:46 11,9 C 88 % 1009,9 hPa 0,0 l/m 2,5 km/h (1 Bft) W-NW 292 10,0 C 11,9 C
01.06.2012 04:51 11,9 C 88 % 1010,1 hPa 0,0 l/m 5,0 km/h (1 Bft) N-NW 337 10,0 C 11,9 C
01.06.2012 04:56 11,9 C 88 % 1010,1 hPa 0,0 l/m 7,9 km/h (2 Bft) N 360 10,0 C 11,9 C
01.06.2012 05:01 11,9 C 88 % 1010,1 hPa 0,0 l/m 3,2 km/h (1 Bft) N-NO 22 10,0 C 11,9 C
01.06.2012 05:06 11,9 C 88 % 1010,2 hPa 0,0 l/m 6,5 km/h (2 Bft) N 360 10,0 C 11,9 C
01.06.2012 05:11 11,9 C 88 % 1010,2 hPa 0,0 l/m 2,5 km/h (1 Bft) N 360 10,0 C 11,9 C
01.06.2012 05:16 11,9 C 88 % 1010,2 hPa 0,0 l/m 3,2 km/h (1 Bft) N 360 10,0 C 11,9 C
01.06.2012 05:21 11,9 C 88 % 1010,2 hPa 0,0 l/m 0,0 km/h (0 Bft) N-NO 22 10,0 C 11,9 C
01.06.2012 05:26 11,9 C 88 % 1010,2 hPa 0,0 l/m 5,0 km/h (1 Bft) NW 315 10,0 C 11,9 C
01.06.2012 05:31 11,9 C 88 % 1010,2 hPa 0,0 l/m 3,6 km/h (1 Bft) N-NO 22 10,0 C 11,9 C
01.06.2012 05:36 11,9 C 88 % 1010,3 hPa 0,0 l/m 4,7 km/h (1 Bft) N 360 10,0 C 11,9 C
01.06.2012 05:41 11,9 C 88 % 1010,4 hPa 0,0 l/m 3,6 km/h (1 Bft) NW 315 10,0 C 11,9 C
01.06.2012 05:46 11,9 C 88 % 1010,6 hPa 0,0 l/m 7,2 km/h (2 Bft) N-NW 337 10,0 C 11,9 C
01.06.2012 05:51 11,9 C 87 % 1010,6 hPa 0,0 l/m 4,7 km/h (1 Bft) W 270 9,8 C 11,9 C
01.06.2012 05:56 11,8 C 87 % 1010,8 hPa 0,0 l/m 5,0 km/h (1 Bft) N 360 9,7 C 11,8 C
01.06.2012 06:01 11,8 C 87 % 1010,8 hPa 0,0 l/m 11,2 km/h (2 Bft) N 360 9,7 C 11,8 C
01.06.2012 06:06 11,8 C 87 % 1010,9 hPa 0,0 l/m 2,5 km/h (1 Bft) NO 45 9,7 C 11,8 C
01.06.2012 06:11 11,8 C 87 % 1010,9 hPa 0,0 l/m 7,2 km/h (2 Bft) NW 315 9,7 C 11,8 C
01.06.2012 06:16 11,8 C 87 % 1011,0 hPa 0,0 l/m 5,8 km/h (2 Bft) W-SW 247 9,7 C 11,8 C
01.06.2012 06:21 11,8 C 87 % 1011,1 hPa 0,0 l/m 8,6 km/h (2 Bft) NW 315 9,7 C 11,8 C
01.06.2012 06:26 11,6 C 86 % 1011,1 hPa 0,0 l/m 6,5 km/h (2 Bft) N-NW 337 9,3 C 11,6 C
01.06.2012 06:31 11,6 C 86 % 1011,3 hPa 0,0 l/m 17,3 km/h (3 Bft) N-NW 337 9,3 C 11,6 C
01.06.2012 06:36 11,6 C 85 % 1011,3 hPa 0,0 l/m 4,0 km/h (1 Bft) N-NO 22 9,2 C 11,6 C
01.06.2012 06:41 11,4 C 85 % 1011,5 hPa 0,0 l/m 16,6 km/h (3 Bft) NW 315 9,0 C 11,4 C
01.06.2012 06:46 11,4 C 84 % 1011,5 hPa 0,0 l/m 2,9 km/h (1 Bft) W-NW 292 8,8 C 11,4 C
01.06.2012 06:51 11,3 C 84 % 1011,6 hPa 0,0 l/m 4,7 km/h (1 Bft) N 360 8,7 C 11,3 C
01.06.2012 06:56 11,4 C 84 % 1011,6 hPa 0,0 l/m 8,6 km/h (2 Bft) NW 315 8,8 C 11,4 C
01.06.2012 07:01 11,4 C 84 % 1011,7 hPa 0,0 l/m 7,6 km/h (2 Bft) NW 315 8,8 C 11,4 C
01.06.2012 07:06 11,5 C 84 % 1011,7 hPa 0,0 l/m 2,2 km/h (1 Bft) W-NW 292 8,9 C 11,5 C
01.06.2012 07:11 11,5 C 83 % 1011,7 hPa 0,0 l/m 3,2 km/h (1 Bft) W 270 8,7 C 11,5 C
01.06.2012 07:16 11,5 C 83 % 1011,8 hPa 0,0 l/m 7,6 km/h (2 Bft) W-NW 292 8,7 C 11,5 C
01.06.2012 07:21 11,6 C 83 % 1011,9 hPa 0,0 l/m 7,9 km/h (2 Bft) W-NW 292 8,8 C 11,6 C
01.06.2012 07:26 11,6 C 83 % 1011,8 hPa 0,0 l/m 9,4 km/h (2 Bft) W-NW 292 8,8 C 11,6 C
01.06.2012 07:31 11,6 C 83 % 1011,8 hPa 0,0 l/m 8,3 km/h (2 Bft) NW 315 8,8 C 11,6 C
01.06.2012 07:36 11,6 C 83 % 1011,9 hPa 0,0 l/m 6,8 km/h (2 Bft) W-NW 292 8,8 C 11,6 C
01.06.2012 07:41 11,6 C 83 % 1011,8 hPa 0,0 l/m 18,4 km/h (3 Bft) W-NW 292 8,8 C 11,6 C
01.06.2012 07:46 11,5 C 82 % 1011,9 hPa 0,0 l/m 1,1 km/h (1 Bft) N-NW 337 8,5 C 11,5 C
01.06.2012 07:51 11,4 C 82 % 1011,9 hPa 0,0 l/m 4,7 km/h (1 Bft) NW 315 8,4 C 11,4 C
01.06.2012 07:56 11,4 C 82 % 1012,0 hPa 0,0 l/m 9,7 km/h (2 Bft) NW 315 8,4 C 11,4 C
01.06.2012 08:01 11,4 C 82 % 1012,0 hPa 0,0 l/m 4,3 km/h (1 Bft) W-NW 292 8,4 C 11,4 C
01.06.2012 08:06 11,4 C 81 % 1012,0 hPa 0,0 l/m 5,8 km/h (2 Bft) W-NW 292 8,3 C 11,4 C
01.06.2012 08:11 11,4 C 81 % 1012,1 hPa 0,0 l/m 10,8 km/h (2 Bft) W 270 8,3 C 11,4 C
01.06.2012 08:16 11,4 C 80 % 1012,1 hPa 0,0 l/m 15,1 km/h (3 Bft) W 270 8,1 C 11,4 C
01.06.2012 08:21 11,4 C 80 % 1012,1 hPa 0,0 l/m 7,9 km/h (2 Bft) W-NW 292 8,1 C 11,4 C
01.06.2012 08:26 11,6 C 78 % 1012,2 hPa 0,0 l/m 8,3 km/h (2 Bft) N-NW 337 7,9 C 11,6 C
01.06.2012 08:31 11,6 C 78 % 1012,2 hPa 0,0 l/m 6,5 km/h (2 Bft) W 270 7,9 C 11,6 C
01.06.2012 08:36 11,8 C 77 % 1012,4 hPa 0,0 l/m 10,4 km/h (2 Bft) W-NW 292 7,9 C 11,8 C
01.06.2012 08:41 11,8 C 77 % 1012,3 hPa 0,0 l/m 10,4 km/h (2 Bft) NW 315 7,9 C 11,8 C
01.06.2012 08:46 11,9 C 76 % 1012,4 hPa 0,0 l/m 7,6 km/h (2 Bft) W-NW 292 7,8 C 11,9 C
01.06.2012 08:51 11,9 C 76 % 1012,4 hPa 0,0 l/m 19,1 km/h (3 Bft) NW 315 7,8 C 11,9 C
01.06.2012 08:56 11,9 C 75 % 1012,4 hPa 0,0 l/m 6,5 km/h (2 Bft) N-NW 337 7,6 C 11,9 C
01.06.2012 09:01 11,8 C 75 % 1012,5 hPa 0,0 l/m 1,4 km/h (1 Bft) NW 315 7,5 C 11,8 C
01.06.2012 09:06 11,7 C 76 % 1012,6 hPa 0,0 l/m 7,6 km/h (2 Bft) NW 315 7,6 C 11,7 C
01.06.2012 09:11 11,8 C 76 % 1012,6 hPa 0,0 l/m 6,1 km/h (2 Bft) NW 315 7,7 C 11,8 C
01.06.2012 09:16 11,9 C 75 % 1012,5 hPa 0,0 l/m 13,3 km/h (3 Bft) W 270 7,6 C 11,9 C
01.06.2012 09:21 12,0 C 76 % 1012,5 hPa 0,0 l/m 5,8 km/h (2 Bft) NW 315 7,9 C 12,0 C
01.06.2012 09:26 12,2 C 75 % 1012,5 hPa 0,0 l/m 21,6 km/h (4 Bft) W-NW 292 7,9 C 12,2 C
01.06.2012 09:31 12,4 C 74 % 1012,7 hPa 0,0 l/m 13,7 km/h (3 Bft) W-NW 292 7,9 C 12,4 C
01.06.2012 09:36 12,3 C 73 % 1012,7 hPa 0,0 l/m 18,0 km/h (3 Bft) NW 315 7,6 C 12,3 C
01.06.2012 09:41 12,2 C 73 % 1012,7 hPa 0,0 l/m 7,2 km/h (2 Bft) W-NW 292 7,5 C 12,2 C
01.06.2012 09:46 12,1 C 73 % 1012,8 hPa 0,0 l/m 14,8 km/h (3 Bft) W-NW 292 7,4 C 12,1 C
01.06.2012 09:51 12,0 C 73 % 1012,7 hPa 0,0 l/m 11,9 km/h (2 Bft) NW 315 7,3 C 12,0 C
01.06.2012 09:56 12,1 C 74 % 1012,7 hPa 0,0 l/m 6,8 km/h (2 Bft) W-NW 292 7,6 C 12,1 C
01.06.2012 10:01 12,3 C 74 % 1012,7 hPa 0,0 l/m 6,5 km/h (2 Bft) W 270 7,8 C 12,3 C
01.06.2012 10:06 12,5 C 73 % 1012,7 hPa 0,0 l/m 10,4 km/h (2 Bft) N-NW 337 7,8 C 12,5 C
01.06.2012 10:11 12,8 C 74 % 1012,7 hPa 0,5 l/m 2,9 km/h (1 Bft) W-SW 247 8,3 C 12,8 C
01.06.2012 10:16 13,1 C 72 % 1012,7 hPa 0,0 l/m 9,4 km/h (2 Bft) W-NW 292 8,2 C 13,1 C
01.06.2012 10:21 13,3 C 71 % 1012,7 hPa 0,0 l/m 9,0 km/h (2 Bft) W 270 8,2 C 13,3 C
01.06.2012 10:26 13,4 C 69 % 1012,8 hPa 0,0 l/m 15,8 km/h (3 Bft) W-NW 292 7,8 C 13,4 C
01.06.2012 10:31 13,4 C 68 % 1012,8 hPa 0,0 l/m 5,8 km/h (2 Bft) W-NW 292 7,6 C 13,4 C
01.06.2012 10:36 13,5 C 68 % 1012,9 hPa 0,0 l/m 11,2 km/h (2 Bft) W-NW 292 7,7 C 13,5 C
01.06.2012 10:41 13,4 C 67 % 1012,9 hPa 0,0 l/m 20,5 km/h (4 Bft) W 270 7,4 C 13,4 C
01.06.2012 10:46 13,3 C 66 % 1012,8 hPa 0,0 l/m 7,2 km/h (2 Bft) NW 315 7,1 C 13,3 C
01.06.2012 10:51 13,3 C 67 % 1012,8 hPa 0,0 l/m 17,3 km/h (3 Bft) W-NW 292 7,3 C 13,3 C
01.06.2012 10:56 13,3 C 66 % 1012,9 hPa 0,0 l/m 7,2 km/h (2 Bft) W 270 7,1 C 13,3 C
01.06.2012 11:01 13,5 C 66 % 1012,8 hPa 0,0 l/m 20,5 km/h (4 Bft) W-NW 292 7,3 C 13,5 C
01.06.2012 11:06 13,6 C 65 % 1012,7 hPa 0,0 l/m 12,2 km/h (2 Bft) W-NW 292 7,1 C 13,6 C
01.06.2012 11:11 13,5 C 62 % 1012,9 hPa 0,0 l/m 7,6 km/h (2 Bft) NO 45 6,4 C 13,5 C
01.06.2012 11:16 13,1 C 63 % 1013,0 hPa 0,0 l/m 0,0 km/h (0 Bft) NO 45 6,2 C 13,1 C
01.06.2012 11:21 13,0 C 64 % 1013,0 hPa 0,0 l/m 3,6 km/h (1 Bft) N 360 6,4 C 13,0 C
01.06.2012 11:26 12,8 C 65 % 1013,1 hPa 0,0 l/m 14,4 km/h (3 Bft) N-NW 337 6,4 C 12,8 C
01.06.2012 11:31 12,7 C 65 % 1013,2 hPa 0,0 l/m 5,0 km/h (1 Bft) NW 315 6,3 C 12,7 C
01.06.2012 11:36 12,8 C 65 % 1013,2 hPa 0,0 l/m 22,7 km/h (4 Bft) W-NW 292 6,4 C 12,8 C
01.06.2012 11:41 12,9 C 65 % 1013,1 hPa 0,0 l/m 19,8 km/h (3 Bft) W-NW 292 6,5 C 12,9 C
01.06.2012 11:46 13,3 C 64 % 1013,0 hPa 0,0 l/m 31,0 km/h (5 Bft) W-NW 292 6,6 C 13,3 C
01.06.2012 11:51 13,6 C 62 % 1012,8 hPa 0,0 l/m 5,4 km/h (1 Bft) NW 315 6,5 C 13,6 C
01.06.2012 11:56 13,8 C 62 % 1012,8 hPa 0,0 l/m 18,0 km/h (3 Bft) W 270 6,6 C 13,8 C
01.06.2012 12:01 13,9 C 61 % 1013,0 hPa 0,0 l/m 16,9 km/h (3 Bft) NW 315 6,5 C 13,9 C
01.06.2012 12:06 13,9 C 62 % 1013,1 hPa 0,0 l/m 18,4 km/h (3 Bft) W 270 6,7 C 13,9 C
01.06.2012 12:11 13,8 C 61 % 1013,1 hPa 0,0 l/m 6,8 km/h (2 Bft) N-NW 337 6,4 C 13,8 C
01.06.2012 12:16 13,6 C 62 % 1013,0 hPa 0,0 l/m 16,9 km/h (3 Bft) NW 315 6,5 C 13,6 C
01.06.2012 12:21 13,6 C 62 % 1013,0 hPa 0,0 l/m 24,5 km/h (4 Bft) W-NW 292 6,5 C 13,6 C
01.06.2012 12:26 13,6 C 62 % 1013,1 hPa 0,0 l/m 10,4 km/h (2 Bft) W-NW 292 6,5 C 13,6 C
01.06.2012 12:31 13,9 C 62 % 1013,0 hPa 0,0 l/m 20,9 km/h (4 Bft) W 270 6,7 C 13,9 C
01.06.2012 12:36 13,8 C 61 % 1013,2 hPa 0,0 l/m 26,6 km/h (4 Bft) W-NW 292 6,4 C 13,8 C
01.06.2012 12:41 13,8 C 62 % 1013,1 hPa 0,0 l/m 20,5 km/h (4 Bft) N-NW 337 6,6 C 13,8 C
01.06.2012 12:46 13,6 C 62 % 1013,2 hPa 0,0 l/m 14,8 km/h (3 Bft) N 360 6,5 C 13,6 C
01.06.2012 12:51 13,6 C 62 % 1013,3 hPa 0,0 l/m 22,0 km/h (4 Bft) W-NW 292 6,5 C 13,6 C
01.06.2012 12:56 13,6 C 62 % 1013,3 hPa 0,0 l/m 13,3 km/h (3 Bft) W-NW 292 6,5 C 13,6 C
01.06.2012 13:01 14,1 C 61 % 1013,0 hPa 0,0 l/m 16,9 km/h (3 Bft) NW 315 6,7 C 14,1 C
01.06.2012 13:06 14,4 C 60 % 1012,9 hPa 0,0 l/m 16,2 km/h (3 Bft) W-NW 292 6,7 C 14,4 C
01.06.2012 13:11 14,7 C 59 % 1013,0 hPa 0,0 l/m 11,5 km/h (2 Bft) NW 315 6,8 C 14,7 C
01.06.2012 13:16 14,6 C 58 % 1013,0 hPa 0,0 l/m 22,0 km/h (4 Bft) W 270 6,4 C 14,6 C
01.06.2012 13:21 14,4 C 57 % 1013,0 hPa 0,0 l/m 14,4 km/h (3 Bft) NW 315 6,0 C 14,4 C
01.06.2012 13:26 14,5 C 58 % 1013,0 hPa 0,0 l/m 13,7 km/h (3 Bft) W 270 6,3 C 14,5 C
01.06.2012 13:31 14,9 C 58 % 1013,1 hPa 0,0 l/m 24,8 km/h (4 Bft) NW 315 6,7 C 14,9 C
01.06.2012 13:36 15,2 C 57 % 1013,0 hPa 0,0 l/m 17,6 km/h (3 Bft) W 270 6,7 C 15,2 C
01.06.2012 13:41 14,9 C 57 % 1013,0 hPa 0,0 l/m 18,4 km/h (3 Bft) W-NW 292 6,5 C 14,9 C
01.06.2012 13:46 14,6 C 57 % 1013,1 hPa 0,0 l/m 23,0 km/h (4 Bft) NW 315 6,2 C 14,6 C
01.06.2012 13:51 14,4 C 58 % 1013,2 hPa 0,0 l/m 10,4 km/h (2 Bft) W-NW 292 6,2 C 14,4 C
01.06.2012 13:56 14,4 C 59 % 1013,1 hPa 0,0 l/m 9,7 km/h (2 Bft) W-SW 247 6,5 C 14,4 C
01.06.2012 14:01 14,9 C 57 % 1013,1 hPa 0,0 l/m 15,8 km/h (3 Bft) NW 315 6,5 C 14,9 C
01.06.2012 14:06 14,9 C 56 % 1013,1 hPa 0,0 l/m 7,6 km/h (2 Bft) W 270 6,2 C 14,9 C
01.06.2012 14:11 14,9 C 55 % 1013,1 hPa 0,0 l/m 10,4 km/h (2 Bft) W 270 5,9 C 14,9 C
01.06.2012 14:16 14,8 C 56 % 1013,1 hPa 0,0 l/m 18,0 km/h (3 Bft) W-NW 292 6,1 C 14,8 C
01.06.2012 14:21 14,9 C 57 % 1013,2 hPa 0,0 l/m 18,7 km/h (3 Bft) W 270 6,5 C 14,9 C
01.06.2012 14:26 14,9 C 55 % 1013,3 hPa 0,0 l/m 8,6 km/h (2 Bft) W-SW 247 5,9 C 14,9 C
01.06.2012 14:31 14,9 C 56 % 1013,3 hPa 0,0 l/m 10,1 km/h (2 Bft) N-NO 22 6,2 C 14,9 C
01.06.2012 14:36 15,1 C 55 % 1013,3 hPa 0,0 l/m 15,1 km/h (3 Bft) W-NW 292 6,1 C 15,1 C
01.06.2012 14:41 15,0 C 53 % 1013,4 hPa 0,0 l/m 22,7 km/h (4 Bft) W 270 5,5 C 15,0 C
01.06.2012 14:46 14,9 C 54 % 1013,4 hPa 0,0 l/m 16,6 km/h (3 Bft) W 270 5,7 C 14,9 C
01.06.2012 14:51 14,6 C 55 % 1013,5 hPa 0,0 l/m 8,3 km/h (2 Bft) W 270 5,7 C 14,6 C
01.06.2012 14:56 14,3 C 55 % 1013,6 hPa 0,0 l/m 16,6 km/h (3 Bft) W 270 5,4 C 14,3 C
01.06.2012 15:01 14,3 C 56 % 1013,6 hPa 0,0 l/m 6,1 km/h (2 Bft) W-NW 292 5,6 C 14,3 C
01.06.2012 15:06 14,8 C 56 % 1013,4 hPa 0,0 l/m 12,6 km/h (3 Bft) NW 315 6,1 C 14,8 C
01.06.2012 15:11 15,4 C 54 % 1013,4 hPa 0,0 l/m 16,9 km/h (3 Bft) N-NW 337 6,1 C 15,4 C
01.06.2012 15:16 15,9 C 50 % 1013,4 hPa 0,0 l/m 19,8 km/h (3 Bft) W-NW 292 5,5 C 15,9 C
01.06.2012 15:21 15,6 C 50 % 1013,2 hPa 0,0 l/m 19,4 km/h (3 Bft) W-NW 292 5,2 C 15,6 C
01.06.2012 15:26 15,3 C 50 % 1013,2 hPa 0,0 l/m 23,4 km/h (4 Bft) W-NW 292 4,9 C 15,3 C
01.06.2012 15:31 14,9 C 51 % 1013,4 hPa 0,0 l/m 23,8 km/h (4 Bft) NW 315 4,9 C 14,9 C
01.06.2012 15:36 14,9 C 53 % 1013,4 hPa 0,0 l/m 5,4 km/h (1 Bft) N-NW 337 5,4 C 14,9 C
01.06.2012 15:41 15,4 C 53 % 1013,4 hPa 0,0 l/m 12,6 km/h (3 Bft) N-NW 337 5,9 C 15,4 C
01.06.2012 15:46 15,4 C 51 % 1013,4 hPa 0,0 l/m 10,8 km/h (2 Bft) N 360 5,3 C 15,4 C
01.06.2012 15:51 15,3 C 51 % 1013,4 hPa 0,0 l/m 15,8 km/h (3 Bft) W 270 5,2 C 15,3 C
01.06.2012 15:56 15,3 C 51 % 1013,4 hPa 0,0 l/m 30,6 km/h (5 Bft) W 270 5,2 C 15,3 C
01.06.2012 16:01 15,5 C 49 % 1013,4 hPa 0,0 l/m 29,2 km/h (5 Bft) NW 315 4,8 C 15,5 C
01.06.2012 16:06 15,8 C 49 % 1013,4 hPa 0,0 l/m 14,8 km/h (3 Bft) W-NW 292 5,1 C 15,8 C
01.06.2012 16:11 15,6 C 50 % 1013,4 hPa 0,0 l/m 15,5 km/h (3 Bft) W-SW 247 5,2 C 15,6 C
01.06.2012 16:16 15,3 C 49 % 1013,5 hPa 0,0 l/m 14,8 km/h (3 Bft) W 270 4,7 C 15,3 C
01.06.2012 16:21 14,9 C 49 % 1013,5 hPa 0,0 l/m 16,2 km/h (3 Bft) NW 315 4,3 C 14,9 C
01.06.2012 16:26 14,8 C 50 % 1013,5 hPa 0,0 l/m 8,6 km/h (2 Bft) NW 315 4,5 C 14,8 C
01.06.2012 16:31 14,5 C 51 % 1013,5 hPa 0,0 l/m 6,8 km/h (2 Bft) NW 315 4,5 C 14,5 C
01.06.2012 16:36 14,4 C 52 % 1013,6 hPa 0,0 l/m 9,7 km/h (2 Bft) NW 315 4,7 C 14,4 C
01.06.2012 16:41 14,4 C 52 % 1013,7 hPa 0,0 l/m 11,9 km/h (2 Bft) NW 315 4,7 C 14,4 C
01.06.2012 16:46 14,6 C 53 % 1013,6 hPa 0,0 l/m 12,6 km/h (3 Bft) N-NW 337 5,1 C 14,6 C
01.06.2012 16:51 15,2 C 52 % 1013,6 hPa 0,0 l/m 10,8 km/h (2 Bft) N 360 5,4 C 15,2 C
01.06.2012 16:56 15,6 C 51 % 1013,6 hPa 0,0 l/m 16,2 km/h (3 Bft) NW 315 5,5 C 15,6 C
01.06.2012 17:01 15,6 C 49 % 1013,5 hPa 0,0 l/m 32,4 km/h (5 Bft) NW 315 4,9 C 15,6 C
01.06.2012 17:06 15,3 C 49 % 1013,5 hPa 0,0 l/m 25,6 km/h (4 Bft) W-NW 292 4,7 C 15,3 C
01.06.2012 17:11 15,3 C 49 % 1013,6 hPa 0,0 l/m 16,6 km/h (3 Bft) W 270 4,7 C 15,3 C
01.06.2012 17:16 15,3 C 49 % 1013,6 hPa 0,0 l/m 33,8 km/h (5 Bft) W-NW 292 4,7 C 15,3 C
01.06.2012 17:21 15,1 C 48 % 1013,8 hPa 0,0 l/m 18,0 km/h (3 Bft) W 270 4,2 C 15,1 C
01.06.2012 17:26 14,9 C 49 % 1013,9 hPa 0,0 l/m 24,5 km/h (4 Bft) W 270 4,3 C 14,9 C
01.06.2012 17:31 14,9 C 50 % 1013,8 hPa 0,0 l/m 32,0 km/h (5 Bft) W-NW 292 4,6 C 14,9 C
01.06.2012 17:36 15,3 C 49 % 1013,8 hPa 0,0 l/m 23,0 km/h (4 Bft) W-SW 247 4,7 C 15,3 C
01.06.2012 17:41 15,3 C 49 % 1013,8 hPa 0,0 l/m 12,2 km/h (2 Bft) W 270 4,7 C 15,3 C
01.06.2012 17:46 15,0 C 50 % 1013,8 hPa 0,0 l/m 11,2 km/h (2 Bft) W-NW 292 4,7 C 15,0 C
01.06.2012 17:51 14,9 C 49 % 1013,9 hPa 0,0 l/m 11,2 km/h (2 Bft) NW 315 4,3 C 14,9 C
01.06.2012 17:56 14,9 C 49 % 1013,8 hPa 0,0 l/m 5,4 km/h (1 Bft) W-NW 292 4,3 C 14,9 C
01.06.2012 18:01 14,8 C 50 % 1013,9 hPa 0,0 l/m 18,4 km/h (3 Bft) W-NW 292 4,5 C 14,8 C
01.06.2012 18:06 14,8 C 51 % 1013,9 hPa 0,0 l/m 15,1 km/h (3 Bft) W-NW 292 4,8 C 14,8 C
01.06.2012 18:11 15,0 C 51 % 1013,8 hPa 0,0 l/m 15,8 km/h (3 Bft) W 270 4,9 C 15,0 C
01.06.2012 18:16 15,0 C 51 % 1013,8 hPa 0,0 l/m 15,1 km/h (3 Bft) W 270 4,9 C 15,0 C
01.06.2012 18:21 15,1 C 51 % 1013,8 hPa 0,0 l/m 19,1 km/h (3 Bft) S-SW 202 5,0 C 15,1 C
01.06.2012 18:26 15,3 C 50 % 1013,8 hPa 0,0 l/m 13,3 km/h (3 Bft) W-NW 292 4,9 C 15,3 C
01.06.2012 18:31 15,4 C 49 % 1013,9 hPa 0,0 l/m 19,1 km/h (3 Bft) W-NW 292 4,7 C 15,4 C
01.06.2012 18:36 15,3 C 49 % 1014,1 hPa 0,0 l/m 10,4 km/h (2 Bft) W 270 4,7 C 15,3 C
01.06.2012 18:41 14,9 C 50 % 1013,9 hPa 0,0 l/m 15,5 km/h (3 Bft) NW 315 4,6 C 14,9 C
01.06.2012 18:46 14,6 C 50 % 1013,9 hPa 0,0 l/m 9,0 km/h (2 Bft) W-SW 247 4,3 C 14,6 C
01.06.2012 18:51 14,6 C 51 % 1013,9 hPa 0,0 l/m 18,4 km/h (3 Bft) W-NW 292 4,6 C 14,6 C
01.06.2012 18:56 14,6 C 51 % 1013,8 hPa 0,0 l/m 32,4 km/h (5 Bft) NW 315 4,6 C 14,6 C
01.06.2012 19:01 14,4 C 51 % 1014,0 hPa 0,0 l/m 16,6 km/h (3 Bft) W-NW 292 4,4 C 14,4 C
01.06.2012 19:06 14,3 C 52 % 1013,9 hPa 0,0 l/m 16,9 km/h (3 Bft) W 270 4,6 C 14,3 C
01.06.2012 19:11 14,3 C 51 % 1013,9 hPa 0,0 l/m 16,2 km/h (3 Bft) W-NW 292 4,3 C 14,3 C
01.06.2012 19:16 14,2 C 51 % 1013,9 hPa 0,0 l/m 14,8 km/h (3 Bft) W 270 4,2 C 14,2 C
01.06.2012 19:21 14,1 C 52 % 1014,1 hPa 0,0 l/m 25,6 km/h (4 Bft) W-NW 292 4,4 C 14,1 C
01.06.2012 19:26 14,1 C 51 % 1014,0 hPa 0,0 l/m 11,2 km/h (2 Bft) W 270 4,1 C 14,1 C
01.06.2012 19:31 14,1 C 50 % 1014,1 hPa 0,0 l/m 20,2 km/h (4 Bft) W-NW 292 3,8 C 14,1 C
01.06.2012 19:36 14,1 C 50 % 1014,2 hPa 0,0 l/m 18,7 km/h (3 Bft) W 270 3,8 C 14,1 C
01.06.2012 19:41 14,1 C 50 % 1014,1 hPa 0,0 l/m 25,9 km/h (4 Bft) W-NW 292 3,8 C 14,1 C
01.06.2012 19:46 14,1 C 50 % 1014,2 hPa 0,0 l/m 18,4 km/h (3 Bft) N-NW 337 3,8 C 14,1 C
01.06.2012 19:51 14,0 C 49 % 1014,2 hPa 0,0 l/m 14,0 km/h (3 Bft) W-NW 292 3,5 C 14,0 C
01.06.2012 19:56 14,0 C 49 % 1014,3 hPa 0,0 l/m 19,1 km/h (3 Bft) W 270 3,5 C 14,0 C
01.06.2012 20:01 13,9 C 49 % 1014,2 hPa 0,0 l/m 14,4 km/h (3 Bft) W-NW 292 3,4 C 13,9 C
01.06.2012 20:06 13,8 C 50 % 1014,5 hPa 0,0 l/m 8,3 km/h (2 Bft) NW 315 3,6 C 13,8 C
01.06.2012 20:11 13,6 C 51 % 1014,5 hPa 0,0 l/m 7,2 km/h (2 Bft) W 270 3,7 C 13,6 C
01.06.2012 20:16 13,5 C 52 % 1014,4 hPa 0,0 l/m 14,8 km/h (3 Bft) W-NW 292 3,8 C 13,5 C
01.06.2012 20:21 13,6 C 52 % 1014,5 hPa 0,0 l/m 11,9 km/h (2 Bft) W-NW 292 3,9 C 13,6 C
01.06.2012 20:26 13,5 C 51 % 1014,4 hPa 0,0 l/m 11,5 km/h (2 Bft) W 270 3,6 C 13,5 C
01.06.2012 20:31 13,3 C 50 % 1014,5 hPa 0,0 l/m 18,7 km/h (3 Bft) W-NW 292 3,1 C 13,3 C
01.06.2012 20:36 13,1 C 49 % 1014,5 hPa 0,0 l/m 10,4 km/h (2 Bft) W-NW 292 2,6 C 13,1 C
01.06.2012 20:41 12,9 C 49 % 1014,5 hPa 0,0 l/m 21,6 km/h (4 Bft) W-NW 292 2,5 C 12,9 C
01.06.2012 20:46 12,6 C 49 % 1014,5 hPa 0,0 l/m 11,2 km/h (2 Bft) W 270 2,2 C 12,6 C
01.06.2012 20:51 12,4 C 50 % 1014,6 hPa 0,0 l/m 12,2 km/h (2 Bft) W 270 2,3 C 12,4 C
01.06.2012 20:56 12,3 C 51 % 1014,6 hPa 0,0 l/m 14,4 km/h (3 Bft) W-NW 292 2,5 C 12,3 C
01.06.2012 21:01 12,1 C 51 % 1014,5 hPa 0,0 l/m 10,4 km/h (2 Bft) W 270 2,3 C 12,1 C
01.06.2012 21:06 11,9 C 52 % 1014,6 hPa 0,0 l/m 7,2 km/h (2 Bft) W-NW 292 2,4 C 11,9 C
01.06.2012 21:11 11,8 C 52 % 1014,6 hPa 0,0 l/m 20,9 km/h (4 Bft) W-NW 292 2,3 C 11,8 C
01.06.2012 21:16 11,7 C 53 % 1014,5 hPa 0,0 l/m 14,0 km/h (3 Bft) NW 315 2,4 C 11,7 C
01.06.2012 21:21 11,6 C 53 % 1014,5 hPa 0,0 l/m 20,9 km/h (4 Bft) W-NW 292 2,4 C 11,6 C
01.06.2012 21:26 11,5 C 53 % 1014,6 hPa 0,0 l/m 25,2 km/h (4 Bft) W-NW 292 2,3 C 11,5 C
01.06.2012 21:31 11,4 C 54 % 1014,6 hPa 0,0 l/m 7,6 km/h (2 Bft) W-NW 292 2,4 C 11,4 C
01.06.2012 21:36 11,3 C 54 % 1014,8 hPa 0,0 l/m 10,1 km/h (2 Bft) NW 315 2,3 C 11,3 C
01.06.2012 21:41 11,2 C 55 % 1014,8 hPa 0,0 l/m 6,5 km/h (2 Bft) W 270 2,5 C 11,2 C
01.06.2012 21:46 11,1 C 56 % 1014,8 hPa 0,0 l/m 9,7 km/h (2 Bft) W-NW 292 2,7 C 11,1 C
01.06.2012 21:51 10,9 C 56 % 1014,9 hPa 0,0 l/m 11,2 km/h (2 Bft) W-NW 292 2,5 C 10,9 C
01.06.2012 21:56 10,8 C 56 % 1014,7 hPa 0,0 l/m 12,2 km/h (2 Bft) W-NW 292 2,4 C 10,8 C
01.06.2012 22:01 10,7 C 57 % 1014,7 hPa 0,0 l/m 6,8 km/h (2 Bft) NW 315 2,5 C 10,7 C
01.06.2012 22:06 10,6 C 58 % 1014,9 hPa 0,0 l/m 4,3 km/h (1 Bft) W 270 2,7 C 10,6 C
01.06.2012 22:11 10,4 C 58 % 1015,0 hPa 0,0 l/m 9,4 km/h (2 Bft) N-NW 337 2,5 C 10,4 C
01.06.2012 22:16 10,4 C 59 % 1014,8 hPa 0,0 l/m 7,2 km/h (2 Bft) W 270 2,7 C 10,4 C
01.06.2012 22:21 10,3 C 59 % 1014,8 hPa 0,0 l/m 6,8 km/h (2 Bft) W-NW 292 2,6 C 10,3 C
01.06.2012 22:26 10,3 C 60 % 1014,8 hPa 0,0 l/m 6,5 km/h (2 Bft) W 270 2,9 C 10,3 C
01.06.2012 22:31 10,1 C 61 % 1014,9 hPa 0,0 l/m 10,8 km/h (2 Bft) W 270 2,9 C 10,1 C
01.06.2012 22:36 10,1 C 61 % 1014,9 hPa 0,0 l/m 13,7 km/h (3 Bft) W-NW 292 2,9 C 10,1 C
01.06.2012 22:41 10,0 C 61 % 1014,9 hPa 0,0 l/m 11,2 km/h (2 Bft) W-NW 292 2,8 C 8,4 C
01.06.2012 22:46 9,9 C 62 % 1015,0 hPa 0,0 l/m 10,8 km/h (2 Bft) W 270 3,0 C 8,4 C
01.06.2012 22:51 9,9 C 62 % 1014,7 hPa 0,0 l/m 10,8 km/h (2 Bft) NW 315 3,0 C 8,4 C
01.06.2012 22:56 9,8 C 62 % 1014,9 hPa 0,0 l/m 10,4 km/h (2 Bft) W-NW 292 2,9 C 8,3 C
01.06.2012 23:01 9,8 C 63 % 1014,7 hPa 0,0 l/m 5,8 km/h (2 Bft) W-SW 247 3,1 C 9,3 C
01.06.2012 23:06 9,8 C 63 % 1014,8 hPa 0,0 l/m 6,5 km/h (2 Bft) W-NW 292 3,1 C 9,1 C
01.06.2012 23:11 9,7 C 63 % 1014,8 hPa 0,0 l/m 11,2 km/h (2 Bft) W-NW 292 3,0 C 8,1 C
01.06.2012 23:16 9,6 C 63 % 1014,9 hPa 0,0 l/m 14,0 km/h (3 Bft) W-NW 292 2,9 C 7,5 C
01.06.2012 23:21 9,6 C 64 % 1014,9 hPa 0,0 l/m 10,8 km/h (2 Bft) W 270 3,1 C 8,0 C
01.06.2012 23:26 9,5 C 63 % 1014,9 hPa 0,0 l/m 5,4 km/h (1 Bft) N-NW 337 2,8 C 9,1 C
01.06.2012 23:31 9,5 C 63 % 1014,7 hPa 0,0 l/m 8,3 km/h (2 Bft) W-NW 292 2,8 C 8,4 C
01.06.2012 23:36 9,5 C 63 % 1014,7 hPa 0,0 l/m 11,2 km/h (2 Bft) W 270 2,8 C 7,8 C
01.06.2012 23:41 9,4 C 63 % 1014,8 hPa 0,0 l/m 8,6 km/h (2 Bft) N 360 2,7 C 8,2 C
01.06.2012 23:46 9,4 C 64 % 1014,9 hPa 0,0 l/m 6,8 km/h (2 Bft) W 270 2,9 C 8,6 C
01.06.2012 23:51 9,3 C 64 % 1014,9 hPa 0,0 l/m 6,1 km/h (2 Bft) W 270 2,8 C 8,6 C
01.06.2012 23:56 9,3 C 64 % 1014,9 hPa 0,0 l/m 10,8 km/h (2 Bft) W 270 2,8 C 7,7 C
_ Min-Zeit 23:51 17:21 00:26 - 04:26 - - 20:46 23:16
Minimum _ 9,3 C 48 % 1007,1 hPa - 0,0 km/h (0 Bft) - - 2,2 C 7,5 C
_ Max-Zeit 15:16 02:11 22:11 00:11 17:16 - - 00:01 15:16
Maximum _ 15,9 C 89 % 1015,0 hPa 0,5 l/m 33,8 km/h
W-NW (5 Bft)
- - 12,5 C 15,9 C
Durchschnitt _ 13,0 C 68 % 1012,2 hPa #2,6 l/m 11,7 km/h (2 Bft) W-NW - 7,0 C 13,0 C
(c) by David Heller